Lanai City, HI

12:03 AM HST on July 25, 2017 (GMT -1000)
Lanai City

Weather History for PHNY - March, 2012

Change the Weather History Date:

Wednesday, March 14, 2012

  Actual Average Record
Temperature  
Mean Temperature 68 °F -  
Max Temperature 74 °F 76 °F 82 °F (1997)
Min Temperature 63 °F 60 °F 53 °F (1993)
Cooling Degree Days 4    
Growing Degree Days 18 (Base 50)    
Moisture  
Dew Point 58 °F    
Average Humidity 70    
Maximum Humidity 84    
Minimum Humidity 52    
Precipitation  
Precipitation 0.00 in - - ()
Sea Level Pressure  
Sea Level Pressure 30.05 in    
Wind  
Wind Speed 16 mph (NE)    
Max Wind Speed 23 mph    
Max Gust Speed -    
Visibility 10 miles    
Events      
Averages and records for this station are not official NWS values.
T = Trace of Precipitation, MM = Missing Value Source: NWS Daily Summary

Daily Weather History Graph

Daily Weather History Graph

Search for Another Location

Airport or City:

Trip Planner

Search our weather history database for the weather conditions in past years. The results will help you decide how hot, cold, wet, or windy it might be!

Date:

Astronomy

Mar. 14, 2012 Rise Set
Actual Time 6:36 AM HST 6:37 PM HST
Civil Twilight 6:14 AM HST 6:59 PM HST
Nautical Twilight 5:48 AM HST 7:25 PM HST
Astronomical Twilight 5:23 AM HST 7:50 PM HST
Moon 12:34 AM HST (3/14) 11:48 AM HST (3/14)
Length of Visible Light 12h 44m
Length of Day
12h 00m
Waning Gibbous, 52% of the Moon is Illuminated
Mar 14
Waning Gibbous
Mar 14
Last Quarter
Mar 22
New
Mar 30
First Quarter
Apr 6
Full

Hourly Weather History & Observations

Time (HST) Temp. Dew Point Humidity Pressure Visibility Wind Dir Wind Speed Gust Speed Precip Events Conditions
12:56 AM 64.9 °F 59.0 °F 81% 30.05 in 10.0 mi ENE 16.1 mph - N/A   Mostly Cloudy
1:03 AM 64.4 °F 59.0 °F 83% 30.10 in 10.0 mi ENE 12.7 mph - N/A   Mostly Cloudy
1:56 AM 63.9 °F 59.0 °F 84% 30.03 in 10.0 mi NE 19.6 mph - N/A   Partly Cloudy
2:56 AM 64.9 °F 59.0 °F 81% 30.02 in 10.0 mi NE 11.5 mph - N/A   Mostly Cloudy
3:56 AM 63.9 °F 57.9 °F 81% 30.02 in 10.0 mi ENE 11.5 mph - 0.00 in   Mostly Cloudy
4:56 AM 66.2 °F 57.2 °F 73% 30.07 in 10.0 mi NE 15.0 mph - N/A   Overcast
5:56 AM 63.9 °F 55.9 °F 75% 30.02 in 10.0 mi NE 17.3 mph - N/A   Scattered Clouds
6:56 AM 63.9 °F 57.9 °F 81% 30.04 in 10.0 mi NE 12.7 mph - N/A   Clear
7:56 AM 68.0 °F 57.9 °F 70% 30.06 in 10.0 mi NE 15.0 mph - N/A   Clear
8:56 AM 70.9 °F 57.9 °F 63% 30.08 in 10.0 mi NE 17.3 mph - N/A   Scattered Clouds
9:56 AM 72.9 °F 56.8 °F 57% 30.08 in 10.0 mi NE 19.6 mph - N/A   Partly Cloudy
10:56 AM 74.8 °F 55.9 °F 52% 30.07 in 10.0 mi NE 16.1 mph - N/A   Scattered Clouds
12:56 PM 72.9 °F 57.9 °F 59% 30.04 in 10.0 mi NE 17.3 mph - N/A   Mostly Cloudy
1:56 PM 74.8 °F 57.9 °F 55% 30.01 in 10.0 mi NE 20.7 mph - N/A   Mostly Cloudy
2:56 PM 73.9 °F 57.9 °F 57% 30.00 in 10.0 mi ENE 18.4 mph - N/A   Mostly Cloudy
3:56 PM 73.9 °F 57.9 °F 57% 30.01 in 10.0 mi NE 23.0 mph - N/A   Clear
4:56 PM 72.0 °F 59.0 °F 64% 30.01 in 10.0 mi NE 20.7 mph - N/A   Clear
5:56 PM 68.9 °F 57.9 °F 68% 30.04 in 10.0 mi NE 21.9 mph - N/A   Scattered Clouds
9:56 PM 64.9 °F 57.9 °F 78% 30.11 in 10.0 mi NE 17.3 mph - N/A   Mostly Cloudy
10:56 PM 64.9 °F 57.9 °F 78% 30.11 in 10.0 mi NNE 15.0 mph - N/A   Clear
11:56 PM 64.9 °F 57.9 °F 78% 30.10 in 10.0 mi NE 18.4 mph - N/A   Clear